Wind_Speed
14 13 13 13 12 11 11 11 10 10 9 8 8 7 6 6 6 6 6 6 5 4 3 3 3 3 2 2 2 2 3 3 3 3 3 4 5 5 5 6 6 6 6
16 15 14 14 13 12 12 12 11 10 9 9 8 8 7 7 6 6 6 6 6 5 4 3 3 3 2 2 2 2 2 2 2 2 2 3 3 4 4 5 5 6 6
17 17 16 15 15 14 13 13 13 12 11 10 9 9 8 8 7 7 6 7 6 6 5 4 3 3 3 2 2 2 2 1 1 1 2 2 3 4 4 5 5 6 6
19 19 18 17 16 15 15 14 14 13 12 11 10 9 9 9 8 8 7 7 7 6 5 5 4 3 3 2 2 2 2 1 0 1 1 2 3 3 4 4 5 6 6
21 20 20 19 18 17 17 16 15 15 14 13 12 11 10 10 9 9 8 7 7 7 6 5 5 4 4 3 3 3 2 1 1 1 1 2 2 3 4 4 5 5 6
23 22 21 21 20 19 19 18 17 16 15 14 13 12 11 11 10 10 9 8 8 7 7 6 6 5 5 4 4 4 3 2 2 2 2 2 2 3 4 5 5 5 6
24 24 23 23 22 21 21 20 19 18 17 16 15 14 13 12 12 11 11 10 9 8 8 7 7 7 6 6 5 5 4 4 3 3 3 3 3 4 4 5 5 6 6
27 26 25 25 24 24 23 22 21 20 19 18 17 15 15 14 13 13 12 12 11 11 9 9 8 7 7 7 7 6 5 5 4 4 4 4 4 4 5 5 6 6 6
30 29 28 27 26 25 25 24 23 22 21 20 19 18 17 16 15 14 14 14 13 12 12 10 9 9 8 7 7 7 6 6 5 4 4 5 5 5 6 6 6 7 7
32 32 30 29 28 28 27 26 25 25 23 22 21 20 19 18 17 17 16 15 15 14 13 12 11 11 10 9 8 7 8 7 6 6 6 6 6 6 6 6 7 7 8
35 34 33 32 31 30 29 28 27 27 26 24 24 23 21 20 19 18 18 17 16 16 15 15 14 12 12 11 10 9 9 9 8 8 8 7 7 7 7 7 7 8 8
37 37 36 35 34 33 32 31 30 29 28 26 26 25 24 23 21 20 20 19 19 18 17 17 16 14 13 12 12 11 10 10 10 10 9 9 8 8 8 8 9 9 9
40 39 39 38 37 36 35 34 33 32 31 29 28 27 27 26 24 22 22 21 20 20 19 18 17 17 16 14 13 13 12 11 11 11 11 11 10 10 9 9 9 9 10
43 42 41 41 40 39 38 37 36 35 34 33 31 30 28 27 27 25 24 23 22 22 21 20 19 18 18 17 16 15 14 13 12 12 12 12 12 11 11 11 10 10 10
45 44 43 43 42 41 40 40 39 38 37 36 34 32 31 29 29 28 26 25 24 23 23 22 21 20 19 18 17 16 16 15 14 14 13 13 13 13 12 12 12 12 11
46 46 45 45 45 44 42 42 41 40 40 38 37 35 34 33 31 31 30 28 27 26 25 24 23 22 21 20 19 18 17 17 16 16 15 14 14 14 14 13 13 13 13
48 48 48 47 47 46 45 44 44 43 42 41 40 38 37 36 34 33 32 30 29 28 27 26 25 24 23 22 21 20 19 17 17 17 16 15 15 15 15 15 14 14 14
49 49 48 48 48 47 47 47 46 45 45 44 42 41 39 38 37 36 35 33 31 31 30 29 28 26 25 24 23 21 20 19 18 18 18 17 17 16 16 16 16 15 15
49 48 49 49 49 48 48 48 48 47 47 46 45 44 42 41 40 39 37 35 34 33 32 31 30 29 28 27 25 24 23 21 20 19 19 19 19 18 17 17 17 17 17
49 49 49 49 49 48 47 48 48 49 48 47 46 45 44 43 41 41 39 38 36 35 34 33 32 31 30 29 27 26 25 23 22 22 21 20 19 18 18 17 17 18 18
50 50 49 49 50 49 48 48 49 49 49 48 48 47 46 44 43 42 42 40 38 37 36 35 34 33 32 31 29 28 27 26 24 23 22 21 21 20 19 19 19 19 20
49 50 49 50 50 50 50 49 48 49 49 49 49 48 47 46 44 43 43 43 41 39 38 37 36 35 34 33 31 30 29 27 25 24 23 23 22 22 21 21 21 21 20
48 49 50 50 50 50 51 50 50 50 50 51 51 49 49 47 46 45 44 43 43 42 40 39 38 37 36 35 34 32 30 28 27 26 25 24 24 23 23 22 22 22 22
47 48 50 50 51 51 51 51 50 50 51 51 51 50 49 49 49 47 46 45 45 44 42 41 40 39 38 37 36 34 33 31 30 29 28 27 26 26 25 24 24 23 23
46 47 49 50 50 51 52 52 51 50 50 51 52 52 51 50 50 48 48 47 46 45 44 42 41 40 40 39 38 37 36 34 32 30 30 29 29 28 27 26 25 25 24
46 47 47 49 50 50 50 52 52 52 51 51 52 53 52 51 50 49 48 48 48 47 45 44 43 42 41 41 40 39 38 37 35 33 32 32 31 30 29 29 28 27 26
Wind_Direction
224 222 221 217 214 210 208 208 205 202 199 196 193 191 190 187 185 185 182 179 178 173 167 163 158 154 146 139 130 121 115 109 97 86 73 64 60 55 52 49 45 40 35
226 224 222 220 217 215 213 211 208 204 203 202 200 198 198 199 196 192 194 190 185 183 180 176 174 169 161 150 149 146 129 114 103 80 62 55 51 44 39 36 32 27 25
229 226 224 222 220 218 217 215 212 210 208 207 205 205 205 204 202 200 201 201 194 193 193 191 189 186 179 170 167 165 152 120 109 81 57 43 36 26 24 23 20 16 15
229 228 226 224 222 222 220 217 217 215 213 212 212 211 209 208 207 207 206 207 205 202 200 201 200 200 198 188 180 177 175 164 108 65 35 21 16 10 8 8 9 9 8
230 228 228 227 225 223 222 220 219 218 216 215 215 215 214 213 213 212 210 211 213 210 208 211 215 213 209 203 201 201 203 225 262 304 340 348 350 349 350 355 360 1 0
230 228 228 228 227 225 224 223 222 220 218 217 217 216 216 216 215 214 214 216 218 219 221 221 225 226 223 221 223 221 227 244 260 281 303 314 323 330 336 341 346 349 351
232 231 230 228 227 227 226 225 223 221 220 218 218 217 218 217 216 217 219 222 223 224 228 230 229 230 233 232 231 230 237 245 258 274 286 298 309 318 324 329 334 337 340
233 232 231 230 228 228 228 227 225 222 221 220 220 220 220 220 220 221 224 226 228 230 231 230 230 230 234 236 234 233 240 245 254 269 281 291 299 308 312 317 323 328 333
234 233 232 232 230 228 228 227 226 225 222 221 221 222 223 223 224 226 228 230 231 232 233 230 231 231 234 238 238 237 239 244 254 266 279 288 293 300 306 310 315 318 323
235 234 233 232 231 231 230 228 228 227 225 224 223 224 226 226 227 228 230 231 232 232 234 234 234 233 234 237 240 244 245 247 254 262 272 283 291 297 302 306 312 314 316
236 235 234 233 232 232 231 230 229 228 228 227 226 225 226 229 230 230 230 231 233 234 234 235 236 236 237 236 240 245 249 252 253 257 266 276 285 292 296 301 306 310 312
238 237 236 235 233 233 233 232 231 229 229 229 228 227 227 228 231 233 233 233 234 235 235 235 238 239 240 240 242 245 249 253 256 258 263 270 279 285 289 295 300 305 309
238 238 237 237 235 234 233 234 233 233 233 233 233 231 230 229 230 232 234 235 235 236 236 237 238 239 241 242 244 247 249 252 257 260 264 267 272 278 283 290 295 300 304
238 238 237 237 236 235 234 234 234 234 234 234 234 233 233 232 231 231 234 234 236 236 236 237 239 240 242 244 247 249 249 253 256 259 262 265 269 273 278 285 291 296 299
238 238 238 237 236 235 235 235 235 234 234 234 234 234 234 233 233 232 233 235 236 236 237 237 239 241 242 242 245 248 250 252 254 258 262 265 268 270 273 279 285 289 292
238 237 237 237 236 235 235 235 235 234 234 234 233 234 234 234 234 234 234 235 236 237 238 238 239 241 241 242 244 247 250 251 253 256 260 264 266 269 272 275 280 284 287
237 237 236 237 237 235 235 235 235 234 234 233 233 234 234 234 235 235 235 236 237 238 238 238 239 240 241 241 243 247 250 252 252 254 258 262 264 267 269 272 276 281 285
237 237 237 237 237 236 235 235 235 234 234 234 233 234 234 234 234 235 236 238 238 238 238 238 239 239 240 242 243 246 249 250 253 254 257 260 263 266 269 271 274 278 282
237 238 237 237 237 236 234 234 234 234 234 234 234 234 234 234 234 234 235 236 237 238 237 237 238 239 239 241 243 245 247 249 252 255 258 259 261 264 267 270 273 276 280
238 238 236 236 236 234 233 233 233 234 233 233 233 233 233 234 234 234 235 234 235 236 237 237 238 238 239 241 242 245 247 249 252 255 259 258 259 262 266 269 272 276 279
239 238 235 234 234 234 232 232 232 233 233 233 233 232 232 233 234 235 234 234 234 235 236 236 237 237 238 239 242 244 245 249 252 255 258 259 259 262 264 268 272 275 278
237 237 236 234 234 234 233 233 233 232 232 231 232 232 232 232 233 234 234 235 235 235 235 236 236 237 238 238 240 243 245 248 251 253 256 259 260 261 263 266 270 273 276
236 236 236 235 234 233 233 233 233 232 231 231 231 231 232 232 232 234 234 234 234 234 234 235 236 236 237 238 239 241 244 247 250 251 255 257 259 261 263 266 268 270 273
235 236 236 236 235 233 233 233 232 233 232 230 231 231 231 231 232 233 233 233 234 234 234 234 235 236 237 238 238 241 244 245 248 251 254 256 258 261 262 265 266 268 272
234 236 236 235 235 234 233 233 232 232 231 230 230 230 231 232 232 233 232 233 234 234 234 235 235 236 237 239 240 243 243 245 247 250 253 255 257 259 261 264 265 267 270
235 235 235 234 235 235 233 232 232 232 231 229 229 229 229 230 231 232 233 234 234 234 235 235 236 237 238 238 240 242 243 245 247 250 252 254 256 258 260 262 264 266 268
Height
5842 5843 5845 5846 5847 5848 5849 5851 5852 5853 5855 5856 5857 5858 5860 5861 5862 5863 5864 5865 5866 5867 5868 5869 5869 5870 5870 5871 5871 5872 5872 5873 5873 5873 5873 5873 5873 5873 5873 5873 5872 5872 5871
5839 5841 5843 5844 5845 5847 5848 5849 5851 5852 5853 5855 5856 5857 5859 5860 5861 5863 5864 5865 5866 5867 5868 5868 5869 5870 5870 5871 5871 5872 5873 5873 5873 5873 5873 5873 5873 5873 5873 5873 5872 5872 5871
5837 5838 5840 5842 5843 5845 5846 5848 5849 5851 5852 5854 5855 5856 5858 5859 5861 5862 5863 5864 5865 5866 5867 5868 5869 5869 5870 5871 5871 5872 5872 5873 5873 5873 5873 5874 5874 5873 5873 5873 5873 5872 5871
5834 5835 5837 5839 5841 5843 5844 5846 5847 5849 5851 5852 5854 5855 5857 5858 5859 5861 5862 5863 5864 5865 5866 5867 5868 5869 5870 5871 5871 5872 5872 5873 5873 5873 5873 5873 5873 5873 5873 5873 5872 5872 5872
5830 5832 5834 5836 5838 5840 5842 5843 5845 5847 5848 5850 5852 5854 5855 5857 5858 5860 5861 5862 5863 5865 5866 5867 5868 5869 5869 5870 5871 5871 5872 5872 5872 5873 5873 5873 5873 5873 5873 5873 5872 5872 5871
5827 5829 5831 5833 5835 5837 5839 5840 5842 5844 5846 5848 5850 5852 5853 5855 5856 5858 5860 5861 5862 5863 5865 5866 5867 5868 5869 5869 5870 5870 5871 5871 5872 5872 5872 5873 5873 5873 5873 5872 5872 5872 5871
5823 5825 5827 5829 5831 5834 5836 5837 5839 5841 5843 5845 5847 5849 5851 5853 5855 5856 5858 5859 5861 5862 5863 5864 5865 5866 5867 5868 5869 5870 5870 5871 5871 5872 5872 5872 5872 5872 5872 5872 5871 5871 5871
5818 5820 5822 5825 5827 5830 5832 5834 5836 5838 5840 5842 5844 5846 5848 5850 5852 5854 5856 5857 5859 5860 5861 5863 5864 5865 5866 5867 5868 5868 5869 5870 5870 5871 5871 5871 5871 5871 5871 5871 5871 5870 5870
5812 5815 5818 5820 5822 5825 5828 5830 5832 5834 5837 5839 5841 5843 5845 5848 5850 5851 5853 5855 5857 5858 5859 5861 5862 5863 5864 5865 5866 5867 5868 5868 5869 5869 5870 5870 5870 5870 5870 5870 5870 5869 5869
5807 5809 5812 5814 5817 5820 5823 5825 5828 5830 5833 5835 5837 5840 5842 5844 5846 5848 5850 5852 5854 5856 5857 5858 5860 5861 5862 5863 5864 5865 5866 5867 5868 5868 5869 5869 5869 5869 5869 5869 5868 5868 5868
5800 5803 5806 5809 5811 5814 5817 5820 5823 5825 5828 5831 5833 5836 5838 5840 5843 5845 5847 5849 5851 5853 5854 5856 5857 5859 5860 5861 5862 5863 5864 5865 5866 5866 5867 5867 5867 5868 5868 5867 5867 5867 5866
5793 5796 5799 5802 5805 5808 5811 5814 5817 5820 5823 5825 5828 5831 5834 5836 5839 5841 5843 5845 5847 5849 5851 5853 5855 5856 5857 5859 5860 5861 5862 5863 5864 5864 5865 5865 5866 5866 5866 5866 5866 5865 5865
5784 5787 5791 5795 5798 5801 5804 5807 5810 5814 5817 5820 5823 5825 5829 5831 5834 5836 5839 5841 5843 5845 5847 5849 5851 5853 5854 5856 5857 5858 5859 5860 5861 5862 5863 5863 5863 5864 5864 5864 5864 5863 5863
5775 5778 5782 5786 5790 5793 5797 5800 5803 5807 5810 5813 5817 5819 5823 5826 5828 5831 5834 5836 5839 5841 5843 5846 5848 5849 5851 5853 5854 5855 5856 5857 5858 5859 5860 5861 5861 5861 5862 5862 5862 5861 5861
5765 5769 5773 5776 5780 5784 5788 5792 5795 5799 5803 5806 5810 5813 5816 5819 5823 5825 5828 5831 5834 5836 5839 5841 5843 5845 5847 5849 5850 5852 5853 5854 5855 5856 5857 5858 5858 5859 5859 5859 5859 5859 5859
5754 5758 5762 5766 5770 5775 5779 5783 5787 5791 5795 5798 5802 5806 5809 5813 5816 5819 5822 5825 5828 5831 5834 5836 5839 5841 5843 5845 5846 5848 5849 5851 5852 5853 5854 5855 5855 5856 5856 5856 5857 5857 5856
5742 5747 5751 5755 5760 5764 5769 5773 5777 5781 5785 5790 5794 5797 5801 5805 5808 5812 5816 5819 5822 5825 5828 5831 5833 5836 5838 5840 5842 5844 5845 5847 5848 5849 5850 5851 5852 5853 5853 5853 5854 5854 5854
5729 5735 5739 5744 5748 5753 5758 5762 5767 5771 5776 5780 5785 5789 5793 5797 5800 5804 5808 5812 5815 5818 5821 5824 5827 5830 5833 5835 5838 5839 5841 5842 5844 5845 5846 5847 5848 5849 5849 5850 5850 5850 5850
5717 5722 5727 5732 5736 5741 5746 5751 5756 5760 5765 5770 5775 5779 5784 5787 5791 5796 5800 5804 5807 5811 5814 5818 5821 5824 5827 5830 5832 5834 5836 5838 5839 5841 5842 5843 5844 5845 5846 5846 5847 5847 5847
5704 5709 5714 5719 5724 5729 5734 5739 5744 5749 5754 5759 5764 5769 5774 5778 5782 5786 5791 5795 5799 5803 5807 5810 5814 5817 5821 5824 5826 5829 5831 5833 5835 5836 5837 5838 5839 5841 5842 5842 5843 5843 5843
5692 5696 5700 5706 5711 5717 5722 5727 5732 5738 5744 5749 5754 5759 5764 5768 5773 5777 5781 5786 5790 5795 5799 5803 5807 5810 5814 5817 5820 5823 5825 5827 5829 5831 5832 5833 5835 5836 5837 5838 5838 5839 5839
5679 5684 5689 5694 5699 5705 5710 5715 5721 5726 5732 5738 5743 5748 5753 5758 5763 5767 5772 5777 5782 5786 5791 5795 5799 5803 5806 5810 5814 5816 5819 5822 5824 5826 5827 5828 5829 5831 5832 5833 5834 5834 5834
5667 5672 5677 5682 5687 5693 5698 5703 5708 5714 5719 5725 5731 5737 5743 5748 5753 5757 5763 5768 5772 5777 5782 5786 5790 5795 5799 5802 5806 5810 5813 5815 5818 5820 5821 5823 5824 5825 5826 5827 5828 5829 5829
5656 5660 5665 5670 5675 5680 5685 5691 5697 5702 5708 5714 5720 5726 5731 5737 5742 5747 5752 5758 5763 5768 5773 5777 5781 5786 5790 5794 5798 5802 5806 5809 5811 5813 5815 5817 5818 5820 5821 5822 5823 5823 5824
5645 5649 5654 5658 5663 5668 5673 5679 5685 5690 5696 5702 5709 5715 5721 5726 5731 5737 5742 5748 5753 5758 5763 5768 5772 5777 5781 5785 5790 5794 5797 5801 5804 5806 5808 5810 5812 5813 5814 5816 5817 5817 5818
5633 5638 5642 5647 5652 5657 5662 5666 5672 5678 5684 5690 5697 5703 5709 5715 5721 5726 5732 5737 5743 5749 5754 5759 5763 5768 5772 5776 5781 5785 5789 5792 5795 5798 5801 5803 5804 5806 5808 5809 5810 5811 5812